Hourly Data Report for June 16, 2012

All times are specified in Local Standard Time (LST). Add 1 hour to adjust for Daylight Saving Time where and when it is observed.

MONCTON INTL A
NEW BRUNSWICK

46°06'44.000" N
64°40'43.000" W
70.70 m
8103201
71705
YQM

Download Data

Hourly Data (June 2012)
Hourly Data Report for June 16, 2012
Temp Definition
°C
Dew Point Temp Definition
°C
Rel Hum Definition
%
Wind Dir Definition
10's deg

Wind Spd Definition
km/h
Visibility Definition
km
Stn Press Definition
kPa
Hmdx Definition


Wind Chill Definition


Weather Definition


TIME
00:00 Legend Double Dagger 11.5 10.4 93 1 11 10.0 102.00     LegendNANA
01:00 Legend Double Dagger 11.5 10.4 93 4 15 10.0 102.00     LegendNANA
02:00 Legend Double Dagger 11.4 10.2 92 4 9 10.0 102.04     Cloudy
03:00 Legend Double Dagger 11.4 10.2 92 4 10 10.0 102.07     LegendNANA
04:00 Legend Double Dagger 11.4 10.3 93 3 10 10.0 102.07     LegendNANA
05:00 Legend Double Dagger 11.0 10.1 94 3 10 10.0 102.07     Cloudy
06:00 Legend Double Dagger 11.5 10.1 91 4 14 10.0 102.08     LegendNANA
07:00 Legend Double Dagger 12.2 10.0 86 5 14 10.0 102.12     LegendNANA
08:00 Legend Double Dagger 13.2 10.2 82 2 11 10.0 102.14     Mostly Cloudy
09:00 Legend Double Dagger 15.2 10.7 74 4 13 10.0 102.16     LegendNANA
10:00 Legend Double Dagger 15.3 10.3 72 2 13 10.0 102.15     LegendNANA
11:00 Legend Double Dagger 15.6 10.0 69 2 14 10.0 102.11     Mostly Cloudy
12:00 Legend Double Dagger 17.1 10.5 65 4 14 10.0 102.07     LegendNANA
13:00 Legend Double Dagger 18.3 10.3 59 6 12 10.0 102.06     LegendNANA
14:00 Legend Double Dagger 18.6 11.3 62 4 14 10.0 102.02     Mostly Cloudy
15:00 Legend Double Dagger 17.7 9.9 60 7 12 10.0 101.97     LegendNANA
16:00 Legend Double Dagger 17.4 10.4 63 5 14 10.0 101.92     LegendNANA
17:00 Legend Double Dagger 17.9 10.1 60 4 10 10.0 101.87     Mostly Cloudy
18:00 Legend Double Dagger 17.2 10.6 65 5 10 10.0 101.85     LegendNANA
19:00 Legend Double Dagger 16.1 9.8 66 6 10 10.0 101.85     LegendNANA
20:00 Legend Double Dagger 13.2 9.9 80 8 12 10.0 101.83     Mainly Clear
21:00 Legend Double Dagger 10.5 8.9 90 8 10 10.0 101.85     LegendNANA
22:00 Legend Double Dagger 10.3 8.9 91 11 10 10.0 101.81     LegendNANA
23:00 Legend Double Dagger 10.1 8.1 87 11 9 10.0 101.81     Clear

Notes on Data Quality.

Legend

  • E = Estimated
  • M = Missing
  • NA = Not Available
  • ‡ = Partner data that is not subject to review by the National Climate Archives
Date modified: